{"data":{"norad_id":62914,"epoch":"2026-05-24T18:19:13.781280Z","epoch_age_seconds":95735,"freshness":"FRESH","line1":"1 62914U 25027H   26144.76335395  .00195469  00000+0  14860-2 0  9990","line2":"2 62914  43.0035 249.3740 0003400 272.4447  87.6031 15.70920669 75153","mean_motion":15.70920669,"eccentricity":0.00034,"inclination_deg":43.0035,"raan_deg":249.374,"arg_perigee_deg":272.4447,"mean_anomaly_deg":87.6031,"bstar":0.001486,"rev_number":7515,"period_min":91.665991059667,"perigee_km":353.97480782431,"apogee_km":358.55420084726,"semimajor_km":6734.4015043358,"source":"CELESTRAK","updated_at":"2026-05-25T13:38:19.820061Z"}}